SL-12 DEB, 43527

Orbit data source: Space-Track

SL-12 DEB, 43527 is space debris in HEO originally from a launch on Mon, 01 Mar 2010 UTC launched from the Tyuratam Missile And Space Complex (TTMTR). Debris objects in space refer to the collection of defunct objects orbiting the Earth. Examples of debris include non-operational satellites, rocket bodies, and fragments generated from explosions, collisions, or faulty payload assembly.

Loading next visibility...
Identifier
43527, 2010-007Z
Orbit
HEO
Country
Flag of CISCIS
Related business
Manufacturer
RKKE
Mission
Spacecraft
Bus & Motor
Unknown
Mass
Unknown
Launch date (UTC)
2010-03-01 (16 years ago)
Launch vehicle
Unknown
Launch site
Tyuratam Missile And Space Complex (TTMTR)
Object type
Payload
Rocket body
Debris
Shape & HBR
Unknown shape, 0.6 m
Radar Cross Section
Medium (>0.1 m² and <1 m²)

Expand to show TLE details & history
Last TLE update: 19 hours ago

TLE from 19 hours ago
0 SL-12 DEB
1 43527U 10007Z   25342.73400622 -.00000040  00000-0 -22849-4 0  9994
2 43527  65.0111 252.5405 5606993 304.2421  14.7165  4.26479932115843
Epoch: 2025-12-08T17:36Z
TLE epoch observation values (Epoch: 2025-12-08T17:36:58.137Z)
Latitude
-0.00009°
Longitude
-89.4474°
Altitude
2,000.795 km
Speed
8.387 km/s
True Right ascension
16h 50m 05s
True Declination
0° 00' 00"
Sunlit
Object was in daylight at epoch
Visualization orbit readout
Latitude
Unknown
Longitude
Unknown
Altitude
Unknown
Speed
Unknown
Apparent Right ascension
Unknown
Apparent Declination
Unknown
Sunlit
N/A
Visualization observer readout
Local Sidereal Time
11:05:51
Azimuth
Unknown
Elevation
Unknown
Doppler factor
Unknown
Orbital elements
Apogee altitude
18,688.261 km
Perigee altitude
677.474 km
Semi-major axis
16,061.004 km
Eccentricity
0.5607
Inclination
65.0111°
RAAN
252.5405°
Arg. of periapsis
304.2421°
True anomaly
55.99537°
Mean anomaly
14.7165°
Eccentric anomaly
31.50409°
Mean motion
1.06631 °/min
Orbital period
337.61 mins
BSTAR
-0.000022849
Loading maneuver chart data...
Computing Atmospheric mass density...
Loading historical data...
Loading historical data...
Loading historical data...
Loading historical data...
Loading historical data...
Loading historical data...
Loading historical data...

Documentation

Showing up to 5 results
|